This demonstration page uses our WeatherBlox Daily Observations layout. Learn more.

40.92945, -100.16068

Hourly Observations for December 27, 2016

Temp ( °F °C ) Dew Point ( °F °C ) Humidity (%) Winds ( mph kmh ) Pressure ( in mb ) Visibility ( mi km ) Precip ( " mm )
12:15 am 00:15 Clear 24 -4.6 18 -7.8 79 79 Calm 30.39 1029 10 16.0934 N/A
12:35 am 00:35 Clear 24 -4.4 18 -7.9 77 77 W 7 11 30.39 1029 10 16.0934 N/A
12:55 am 00:55 Clear 24 -4.4 18 -8 76 76 WSW 7 11 30.39 1029 10 16.0934 N/A
1:15 am 01:15 Clear 25 -3.7 18 -8 72 72 W 6 9 30.39 1029 10 16.0934 N/A
1:35 am 01:35 Clear 22 -5.4 17 -8.5 79 79 WNW 3 6 30.39 1029 10 16.0934 N/A
1:55 am 01:55 Clear 24 -4.4 17 -8.1 76 76 WSW 3 6 30.39 1029 10 16.0934 N/A
2:15 am 02:15 Clear 20 -6.9 15 -9.5 82 82 WNW 6 9 30.42 1030 10 16.0934 N/A
2:35 am 02:35 Clear 20 -6.5 16 -8.8 84 84 NNW 3 6 30.42 1030 10 16.0934 N/A
2:55 am 02:55 Clear 19 -7.1 15 -9.5 83 83 WNW 5 7 30.42 1030 10 16.0934 N/A
3:15 am 03:15 Clear 19 -7.2 15 -9.5 84 84 WNW 5 7 30.42 1030 10 16.0934 N/A
3:35 am 03:35 Clear 19 -7.5 15 -9.6 85 85 Calm 30.42 1030 10 16.0934 N/A
3:55 am 03:55 Clear 19 -7.2 15 -9.2 86 86 W 3 6 30.42 1030 10 16.0934 N/A
4:15 am 04:15 Clear 19 -7.4 14 -9.8 83 83 Calm 30.42 1030 10 16.0934 N/A
4:35 am 04:35 Clear 19 -7.2 15 -9.5 84 84 SW 5 7 30.42 1030 10 16.0934 N/A
4:55 am 04:55 Clear 18 -7.9 14 -10 85 85 Calm 30.42 1030 10 16.0934 N/A
5:15 am 05:15 Clear 18 -8 14 -10 86 86 NNW 3 6 30.42 1030 10 16.0934 N/A
5:35 am 05:35 Clear 18 -7.6 14 -10 83 83 Calm 30.39 1029 10 16.0934 N/A
5:55 am 05:55 Clear 17 -8.4 13 -10.4 86 86 Calm 30.39 1029 10 16.0934 N/A
6:15 am 06:15 Clear 17 -8.5 13 -10.5 86 86 Calm 30.39 1029 10 16.0934 N/A
6:35 am 06:35 Clear 17 -8.6 13 -10.4 87 87 Calm 30.39 1029 10 16.0934 N/A
6:55 am 06:55 Clear 17 -8.6 13 -10.5 86 86 N 7 11 30.39 1029 10 16.0934 N/A
7:15 am 07:15 Clear 17 -8.5 13 -10.5 86 86 N 5 7 30.39 1029 10 16.0934 N/A
7:35 am 07:35 Clear 17 -8.5 13 -10.4 86 86 NW 3 6 30.39 1029 10 16.0934 N/A
7:55 am 07:55 Clear 17 -8.5 13 -10.5 86 86 Calm 30.39 1029 10 16.0934 N/A
8:15 am 08:15 Sunny 17 -8.3 13 -10.5 84 84 Calm 30.39 1029 10 16.0934 N/A
8:35 am 08:35 Sunny 18 -7.7 14 -9.9 84 84 Calm 30.36 1028 10 16.0934 N/A
8:55 am 08:55 Sunny 20 -6.5 17 -8.6 85 85 Calm 30.33 1027 10 16.0934 N/A
9:15 am 09:15 Sunny 23 -5 19 -7.4 83 83 Calm 30.33 1027 10 16.0934 N/A
9:35 am 09:35 Sunny 26 -3.6 20 -6.4 81 81 Calm 30.3 1026 10 16.0934 N/A
9:55 am 09:55 Sunny 29 -1.8 21 -5.9 74 74 SW 3 6 30.3 1026 10 16.0934 N/A
10:15 am 10:15 Sunny 30 -1 21 -5.9 70 70 SW 3 6 30.3 1026 10 16.0934 N/A
10:35 am 10:35 Sunny 31 -0.3 22 -5.3 69 69 Calm 30.27 1025 10 16.0934 N/A
10:55 am 10:55 Sunny 32 0.1 22 -5.3 67 67 WNW 3 6 30.27 1025 10 16.0934 N/A
11:15 am 11:15 Sunny 34 1 23 -4.9 65 65 Calm 30.27 1025 10 16.0934 N/A
11:35 am 11:35 Sunny 37 2.5 24 -4.4 61 61 SW 3 6 30.21 1023 10 16.0934 N/A
11:55 am 11:55 Sunny 40 4.3 25 -3.9 56 56 SSW 9 15 30.21 1023 10 16.0934 N/A
12:15 pm 12:15 Sunny 40 4.5 24 -4.5 52 52 SSW 7 11 30.18 1022 10 16.0934 N/A
12:35 pm 12:35 Sunny 42 5.3 23 -4.9 48 48 SSW 7 11 30.15 1021 10 16.0934 N/A
12:55 pm 12:55 Sunny 43 6.2 23 -5.2 44 44 S 8 13 30.12 1020 10 16.0934 N/A
1:15 pm 13:15 Sunny 44 6.9 22 -5.7 41 41 S 10 17 30.09 1019 10 16.0934 N/A
1:35 pm 13:35 Sunny 45 7 22 -5.7 40 40 S 9 15 30.09 1019 10 16.0934 N/A
1:55 pm 13:55 Sunny 46 7.6 20 -6.8 36 36 SSW 9 15 30.06 1018 10 16.0934 N/A
2:15 pm 14:15 Sunny 47 8.1 20 -6.7 35 35 SSW 9 15 30.06 1018 10 16.0934 N/A
2:35 pm 14:35 Sunny 46 8 20 -6.8 35 35 SSW 10 17 30.06 1018 10 16.0934 N/A
2:55 pm 14:55 Sunny 46 8 19 -7.3 33 33 SSW 12 19 30.06 1018 10 16.0934 N/A
3:15 pm 15:15 Sunny 47 8.2 18 -7.8 32 32 S 10 17 30.03 1017 10 16.0934 N/A
3:35 pm 15:35 Sunny 47 8.2 19 -7.3 33 33 S 10 17 30.03 1017 10 16.0934 N/A
3:55 pm 15:55 Sunny 46 7.8 19 -7 35 35 S 10 17 30.03 1017 10 16.0934 N/A
4:15 pm 16:15 Sunny 46 7.5 22 -5.8 39 39 S 6 9 30.03 1017 10 16.0934 N/A
4:35 pm 16:35 Sunny 44 6.6 21 -6.1 40 40 S 8 13 30 1016 10 16.0934 N/A
4:55 pm 16:55 Sunny 40 4.7 23 -5.2 49 49 S 9 15 30.03 1017 10 16.0934 N/A
5:15 pm 17:15 Sunny 38 3.4 23 -5.1 54 54 S 8 13 30.06 1018 10 16.0934 N/A
5:35 pm 17:35 Clear 38 3.1 23 -5.2 55 55 S 9 15 30.03 1017 10 16.0934 N/A
5:55 pm 17:55 Clear 37 2.5 23 -5 58 58 S 7 11 30.03 1017 10 16.0934 N/A
6:15 pm 18:15 Clear 36 2.4 23 -5.1 58 58 S 5 7 30.06 1018 10 16.0934 N/A
6:35 pm 18:35 Clear 35 1.7 24 -4.7 63 63 S 7 11 30.06 1018 10 16.0934 N/A
6:55 pm 18:55 Clear 34 1.2 24 -4.7 65 65 SSE 5 7 30.06 1018 10 16.0934 N/A
7:15 pm 19:15 Clear 34 1 23 -4.8 66 66 SE 3 6 30.03 1017 10 16.0934 N/A
7:35 pm 19:35 Clear 32 0.1 23 -5 69 69 S 7 11 30.06 1018 10 16.0934 N/A
7:55 pm 19:55 Clear 36 2 24 -4.6 62 62 SSW 8 13 30.03 1017 10 16.0934 N/A
8:15 pm 20:15 Clear 37 2.5 23 -5 58 58 S 7 11 30 1016 10 16.0934 N/A
8:35 pm 20:35 Clear 35 1.6 24 -4.7 63 63 SSW 9 15 30 1016 10 16.0934 N/A
8:55 pm 20:55 Clear 35 1.5 24 -4.5 65 65 SSW 5 7 30.03 1017 10 16.0934 N/A
9:15 pm 21:15 Clear 33 0.6 24 -4.7 68 68 S 8 13 30.03 1017 10 16.0934 N/A
9:35 pm 21:35 Clear 33 0.5 24 -4.6 69 69 SSE 12 19 30 1016 10 16.0934 N/A
9:55 pm 21:55 Clear 33 0.5 24 -4.7 68 68 SSE 8 13 29.97 1015 10 16.0934 N/A
10:15 pm 22:15 Clear 30 -0.9 24 -4.7 76 76 Calm 30.03 1017 10 16.0934 N/A
10:35 pm 22:35 Clear 29 -1.6 23 -5.2 77 77 S 3 6 30.03 1017 10 16.0934 N/A
10:55 pm 22:55 Clear 28 -2.4 22 -5.3 81 81 W 6 9 30.03 1017 10 16.0934 N/A
11:15 pm 23:15 Clear 27 -2.8 22 -5.6 81 81 SW 7 11 30.03 1017 10 16.0934 N/A
11:35 pm 23:35 Clear 28 -2.2 22 -5.5 78 78 SW 3 6 30.03 1017 10 16.0934 N/A
11:55 pm 23:55 Clear 26 -3.5 21 -6 83 83 Calm 30.06 1018 10 16.0934 N/A

Powered by AerisWeather